Location: Marne
(34.0056°N, 117.9064°W)
Time: 01:10:53
(UTC+00:00)

SMAP - Pass Details

Date: 18 January 2020
Orbit: 681 x 683 km, 98.1° (Epoch: 19 February)

Event Time Altitude Azimuth Distance (km) Brightness Sun altitude
Rises 01:45:29 0° 180° (S) 3,029 6.7 -8.2°
Reaches altitude 10° 01:47:46 10° 185° (S) 2,117 5.9 -8.6°
Maximum altitude 01:52:14 49° 260° (W) 884 4.2 -9.5°
Drops below altitude 10° 01:56:45 10° 335° (NNW) 2,129 5.7 -10.4°
Sets 01:59:04 0° 341° (NNW) 3,048 6.4 -10.9°
